Andover, NJ

12:52 PM EDT on August 18, 2017 (GMT -0400)
Andover

Weather History for K12N - December, 2012

Change the Weather History Date:

Monday, December 3, 2012

  Actual Average (KFWN) Record (KFWN)
Temperature  
Mean Temperature 48 °F -  
Max Temperature 61 °F 43 °F 65 °F (1970)
Min Temperature 35 °F 22 °F 0 °F (1967)
Degree Days  
Heating Degree Days 17    
Moisture  
Dew Point 42 °F    
Average Humidity 87    
Maximum Humidity 100    
Minimum Humidity 58    
Precipitation  
Precipitation 0.00 in - - ()
Sea Level Pressure  
Sea Level Pressure 30.21 in    
Wind  
Wind Speed 1 mph (SW)    
Max Wind Speed 5 mph    
Max Gust Speed -    
Averages and records for this station are not official NWS values.
T = Trace of Precipitation, MM = Missing Value Source: NWS Daily Summary

Daily Weather History Graph

Daily Weather History Graph

Search for Another Location

Airport or City:

Trip Planner

Search our weather history database for the weather conditions in past years. The results will help you decide how hot, cold, wet, or windy it might be!

Date:

Astronomy

Dec. 03, 2012 Rise Set
Actual Time 7:06 AM EST 4:30 PM EST
Civil Twilight 6:36 AM EST 5:01 PM EST
Nautical Twilight 6:02 AM EST 5:35 PM EST
Astronomical Twilight 5:28 AM EST 6:09 PM EST
Moon 9:16 PM EST (12/3) 10:27 AM EST (12/3)
Length of Visible Light 10h 25m
Length of Day
9h 23m
Waning Gibbous, 78% of the Moon is Illuminated
Dec 3
Waning Gibbous
Dec 6
Last Quarter
Dec 13
New
Dec 20
First Quarter
Dec 28
Full

Hourly Weather History & Observations

Time (EST) Temp. Windchill Dew Point Humidity Pressure Visibility Wind Dir Wind Speed Gust Speed Precip Events Conditions
12:54 AM 46.0 °F 44.8 °F 44.1 °F 93% 30.13 in - SSW 3.5 mph - N/A   Unknown
1:54 AM 46.0 °F - 44.1 °F 93% 30.13 in - Calm Calm - N/A   Unknown
2:54 AM 46.0 °F - 44.1 °F 93% 30.14 in - Calm Calm - N/A   Unknown
3:54 AM 42.1 °F - 41.0 °F 96% 30.15 in - Calm Calm - N/A   Unknown
4:54 AM 37.9 °F - 37.0 °F 97% 30.17 in - Calm Calm - N/A   Unknown
5:54 AM 37.0 °F - 36.0 °F 96% 30.18 in - Calm Calm - N/A   Unknown
6:54 AM 35.1 °F - 35.1 °F 100% 30.21 in - Calm Calm - N/A   Unknown
7:54 AM 37.9 °F 35.5 °F 37.9 °F 100% 30.23 in - SSW 3.5 mph - N/A   Unknown
8:54 AM 41.0 °F - 41.0 °F 100% 30.23 in - Calm Calm - N/A   Unknown
9:54 AM 46.9 °F - 46.0 °F 97% 30.23 in - SW 3.5 mph - N/A   Unknown
10:54 AM 55.0 °F - 48.0 °F 77% 30.22 in - Calm Calm - N/A   Unknown
11:54 AM 59.0 °F - 46.9 °F 64% 30.20 in - Calm Calm - N/A   Unknown
12:54 PM 59.0 °F - 46.0 °F 62% 30.19 in - WNW 4.6 mph - N/A   Unknown
1:54 PM 61.0 °F - 46.0 °F 58% 30.18 in - Variable 3.5 mph - N/A   Unknown
2:00 PM - - - N/A% - - North - - N/A   Unknown
2:54 PM 60.1 °F - 46.0 °F 60% 30.19 in - Variable 3.5 mph - N/A   Unknown
3:54 PM 57.9 °F - 44.1 °F 60% 30.21 in - Calm Calm - N/A   Unknown
4:54 PM 48.0 °F - 43.0 °F 83% 30.23 in - Calm Calm - N/A   Unknown
5:54 PM 45.0 °F - 42.1 °F 90% 30.26 in - Calm Calm - N/A   Unknown
6:54 PM 41.0 °F - 39.0 °F 93% 30.28 in - Calm Calm - N/A   Unknown
7:54 PM 41.0 °F - 39.0 °F 93% 30.29 in - Calm Calm - N/A   Unknown
8:54 PM 42.1 °F - 41.0 °F 96% 30.28 in - Calm Calm - N/A   Unknown
9:54 PM 42.1 °F - 39.9 °F 92% 30.27 in - Calm Calm - N/A   Unknown
10:54 PM 41.0 °F 39.0 °F 39.9 °F 96% 30.27 in - NE 3.5 mph - N/A   Unknown
11:54 PM 42.1 °F - 41.0 °F 96% 30.27 in - Calm Calm - N/A   Unknown